Tracking 25710 objects as of 6-Jul-2022
HD Live streaming from Space Station
objects crossing your sky now

FENGYUN 1C DEB

Track FENGYUN 1C DEB now!
10-day predictions


NORAD ID: 31327
Int'l Code: 1999-025BQF
Perigee: 549.2 km
Apogee: 788.8 km
Inclination: 99.0 °
Period: 98.0 minutes
Semi major axis: 7040 km
RCS: 0.0089 m2 (small)
Launch date: May 10, 1999
Source: People's Republic of China (PRC)
Launch site: Taiyaun Space Center, China (TSC)

Note: This is SATELLITE DEBRIS
aabbcc
Your satellite tracking list
Your tracking list is empty




NASA's NSSDC Master Catalog

Two Line Element Set (TLE):
1 31327U 99025BQF 22186.46983672  .00001766  00000-0  24667-3 0  9993
2 31327  99.0215  14.6784 0170175  29.6738 331.3988 14.69738216814667
Source of the keplerian elements: AFSPC